Météo par heure à Dzial

Ce jour, 28 Janvier, Jeudi

Heure Température Précipitation Vent Pression Humidité
00:00 -8°C° 0 mm 1 m/s 699 mmHg 93%
01:00 -9°C° 0 mm 2 m/s 699 mmHg 93%
02:00 -9°C° 0 mm 1 m/s 699 mmHg 91%
03:00 -9°C° 0 mm 1 m/s 698 mmHg 89%
04:00 -10°C° 0 mm 1 m/s 698 mmHg 87%
05:00 -10°C° 0 mm 1 m/s 698 mmHg 86%
06:00 -10°C° 0 mm 1 m/s 697 mmHg 84%
07:00 -10°C° 0 mm 1 m/s 697 mmHg 83%
08:00 -8°C° 0 mm 1 m/s 697 mmHg 80%
09:00 -7°C° 0 mm 2 m/s 697 mmHg 78%
10:00 -5°C° 0 mm 2 m/s 698 mmHg 76%
11:00 -4°C° 0 mm 2 m/s 697 mmHg 76%
12:00 -3°C° 0 mm 2 m/s 697 mmHg 76%
13:00 -2°C° 0 mm 2 m/s 696 mmHg 77%
14:00 -2°C° 0 mm 2 m/s 696 mmHg 81%
15:00 -3°C° 0 mm 2 m/s 695 mmHg 85%
16:00 -3°C° 0 mm 2 m/s 694 mmHg 89%
17:00 -4°C° 0 mm 2 m/s 694 mmHg 89%
18:00 -4°C° 0 mm 2 m/s 694 mmHg 90%
19:00 -4°C° 0 mm 2 m/s 693 mmHg 91%
20:00 -4°C° 0 mm 2 m/s 693 mmHg 91%
21:00 -4°C° 0 mm 2 m/s 692 mmHg 91%
22:00 -4°C° 0 mm 2 m/s 692 mmHg 91%
23:00 -4°C° 0.1 mm 2 m/s 692 mmHg 92%

Demain, 29 Janvier, Vendredi

Heure Température Précipitation Vent Pression Humidité
00:00 -2°C° 0.1 mm 1 m/s 692 mmHg 94%
01:00 -2°C° 0.1 mm 1 m/s 691 mmHg 96%
02:00 -2°C° 0.2 mm 1 m/s 692 mmHg 96%
03:00 -2°C° 0.2 mm 1 m/s 692 mmHg 96%
04:00 -3°C° 0.2 mm 2 m/s 692 mmHg 97%
05:00 -2°C° 0.2 mm 1 m/s 692 mmHg 97%
06:00 -2°C° 0.2 mm 1 m/s 692 mmHg 96%
07:00 -2°C° 0.2 mm 1 m/s 692 mmHg 96%
08:00 -2°C° 0 mm 1 m/s 692 mmHg 92%
09:00 -1°C° 0 mm 1 m/s 692 mmHg 88%
10:00 0°C° 0 mm 1 m/s 692 mmHg 84%
11:00 +1°C° 0 mm 1 m/s 692 mmHg 84%
12:00 +1°C° 0 mm 1 m/s 692 mmHg 84%
13:00 +2°C° 0 mm 1 m/s 692 mmHg 83%
14:00 +2°C° 0.1 mm 1 m/s 691 mmHg 87%
15:00 +1°C° 0.1 mm 1 m/s 690 mmHg 91%
16:00 +1°C° 0.1 mm 1 m/s 690 mmHg 95%
17:00 +1°C° 0.6 mm 1 m/s 689 mmHg 96%
18:00 +1°C° 0.6 mm 1 m/s 689 mmHg 97%
19:00 +1°C° 0.6 mm 1 m/s 688 mmHg 98%
20:00 -1°C° 0.5 mm 2 m/s 688 mmHg 98%
21:00 +1°C° 0.5 mm 2 m/s 688 mmHg 98%
22:00 0°C° 0.5 mm 3 m/s 688 mmHg 98%
23:00 0°C° 0.3 mm 3 m/s 688 mmHg 98%

Après-demain, 30 Janvier, Samedi

Heure Température Précipitation Vent Pression Humidité
00:00 0°C° 0.3 mm 3 m/s 689 mmHg 97%
01:00 +1°C° 0.3 mm 2 m/s 689 mmHg 97%
02:00 +1°C° 0.1 mm 2 m/s 688 mmHg 97%
03:00 +1°C° 0.1 mm 2 m/s 688 mmHg 97%
04:00 +1°C° 0.1 mm 2 m/s 688 mmHg 97%
05:00 0°C° 0.2 mm 3 m/s 688 mmHg 97%
06:00 0°C° 0.2 mm 3 m/s 688 mmHg 97%
07:00 0°C° 0.2 mm 3 m/s 688 mmHg 97%
08:00 0°C° 0.2 mm 3 m/s 687 mmHg 96%
09:00 -1°C° 0.2 mm 4 m/s 687 mmHg 96%
10:00 -1°C° 0.2 mm 4 m/s 687 mmHg 96%
11:00 -1°C° 0.7 mm 4 m/s 687 mmHg 96%
12:00 -1°C° 0.7 mm 5 m/s 687 mmHg 96%
13:00 -1°C° 0.7 mm 5 m/s 687 mmHg 96%
14:00 -2°C° 0.5 mm 5 m/s 687 mmHg 94%
15:00 -4°C° 0.5 mm 4 m/s 688 mmHg 92%
16:00 -5°C° 0.5 mm 4 m/s 688 mmHg 90%
17:00 -6°C° 0.1 mm 3 m/s 689 mmHg 92%
18:00 -6°C° 0.1 mm 2 m/s 689 mmHg 94%
19:00 -6°C° 0.1 mm 1 m/s 690 mmHg 96%
20:00 -6°C° 0 mm 1 m/s 690 mmHg 96%
21:00 -7°C° 0 mm 1 m/s 691 mmHg 96%
22:00 -7°C° 0 mm 1 m/s 691 mmHg 96%
23:00 -7°C° 0 mm 1 m/s 691 mmHg 95%

31 Janvier, Dimanche

Heure Température Précipitation Vent Pression Humidité
00:00 -7°C° 0 mm 0 m/s 691 mmHg 95%
01:00 -7°C° 0 mm 0 m/s 691 mmHg 94%
02:00 -7°C° 0 mm 0 m/s 691 mmHg 93%
03:00 -7°C° 0 mm 1 m/s 691 mmHg 93%
04:00 -8°C° 0 mm 1 m/s 692 mmHg 92%
05:00 -8°C° 0 mm 1 m/s 692 mmHg 92%
06:00 -8°C° 0 mm 1 m/s 692 mmHg 92%
07:00 -8°C° 0 mm 1 m/s 692 mmHg 92%
08:00 -7°C° 0 mm 1 m/s 692 mmHg 88%
09:00 -6°C° 0 mm 1 m/s 693 mmHg 84%
10:00 -3°C° 0 mm 1 m/s 693 mmHg 80%
11:00 -3°C° 0 mm 1 m/s 693 mmHg 76%
12:00 -2°C° 0 mm 1 m/s 693 mmHg 73%
13:00 -1°C° 0 mm 1 m/s 693 mmHg 70%
14:00 -2°C° 0 mm 1 m/s 692 mmHg 75%
15:00 -3°C° 0 mm 1 m/s 692 mmHg 80%
16:00 -4°C° 0 mm 1 m/s 691 mmHg 85%
17:00 -4°C° 0 mm 1 m/s 691 mmHg 85%
18:00 -5°C° 0 mm 0 m/s 691 mmHg 85%
19:00 -6°C° 0 mm 0 m/s 691 mmHg 85%
20:00 -6°C° 0 mm 0 m/s 691 mmHg 85%
21:00 -6°C° 0 mm 0 m/s 690 mmHg 84%
22:00 -6°C° 0 mm 0 m/s 690 mmHg 84%
23:00 -6°C° 0 mm 0 m/s 690 mmHg 83%

1 Février, Lundi

Heure Température Précipitation Vent Pression Humidité
00:00 -7°C° 0 mm 0 m/s 689 mmHg 82%
01:00 -7°C° 0 mm 0 m/s 689 mmHg 81%
02:00 -7°C° 0 mm 0 m/s 688 mmHg 80%
03:00 -7°C° 0 mm 0 m/s 688 mmHg 80%
04:00 -7°C° 0 mm 0 m/s 688 mmHg 79%
05:00 -7°C° 0 mm 0 m/s 688 mmHg 79%
06:00 -7°C° 0 mm 0 m/s 688 mmHg 79%
07:00 -7°C° 0 mm 0 m/s 688 mmHg 80%
08:00 -6°C° 0 mm 0 m/s 688 mmHg 78%
09:00 -4°C° 0 mm 0 m/s 689 mmHg 76%
10:00 -3°C° 0 mm 0 m/s 689 mmHg 75%
11:00 -2°C° 0 mm 0 m/s 690 mmHg 75%
12:00 -1°C° 0 mm 0 m/s 690 mmHg 75%
13:00 +1°C° 0 mm 1 m/s 690 mmHg 75%
14:00 0°C° 0 mm 1 m/s 690 mmHg 80%
15:00 -2°C° 0 mm 0 m/s 691 mmHg 84%
16:00 -3°C° 0 mm 0 m/s 691 mmHg 89%
17:00 -4°C° 0 mm 0 m/s 691 mmHg 90%
18:00 -5°C° 0 mm 0 m/s 692 mmHg 90%
19:00 -5°C° 0 mm 0 m/s 693 mmHg 91%
20:00 -5°C° 0 mm 0 m/s 693 mmHg 91%
21:00 -5°C° 0 mm 0 m/s 694 mmHg 91%
22:00 -5°C° 0 mm 0 m/s 695 mmHg 91%
23:00 -5°C° 0 mm 0 m/s 695 mmHg 91%

2 Février, Mardi

Heure Température Précipitation Vent Pression Humidité
00:00 -5°C° 0 mm 0 m/s 696 mmHg 91%
01:00 -5°C° 0 mm 0 m/s 696 mmHg 91%
02:00 -5°C° 0 mm 0 m/s 697 mmHg 92%
03:00 -6°C° 0 mm 0 m/s 697 mmHg 93%
04:00 -6°C° 0 mm 0 m/s 698 mmHg 94%
05:00 -6°C° 0 mm 0 m/s 698 mmHg 94%
06:00 -6°C° 0 mm 0 m/s 699 mmHg 95%
07:00 -7°C° 0 mm 0 m/s 700 mmHg 95%
08:00 -5°C° 0 mm 0 m/s 701 mmHg 93%
09:00 -4°C° 0 mm 0 m/s 701 mmHg 91%
10:00 -3°C° 0 mm 0 m/s 702 mmHg 88%
11:00 -2°C° 0 mm 0 m/s 702 mmHg 87%
12:00 0°C° 0 mm 1 m/s 702 mmHg 85%
13:00 0°C° 0 mm 1 m/s 703 mmHg 83%
14:00 0°C° 0 mm 1 m/s 703 mmHg 86%
15:00 -2°C° 0 mm 0 m/s 702 mmHg 89%
16:00 -3°C° 0 mm 0 m/s 702 mmHg 91%
17:00 -3°C° 0 mm 1 m/s 702 mmHg 92%
18:00 -3°C° 0 mm 1 m/s 702 mmHg 92%
19:00 -4°C° 0 mm 1 m/s 702 mmHg 92%
20:00 -4°C° 0 mm 1 m/s 702 mmHg 91%
21:00 -3°C° 0 mm 1 m/s 702 mmHg 90%
22:00 -5°C° 0 mm 2 m/s 702 mmHg 90%
23:00 -5°C° 0 mm 2 m/s 702 mmHg 89%
Voir plus

Nous avons besoin de votre consentement

Meteoprog et ses fournisseurs de services peuvent stocker et accéder à des données personnelles telles que des cookies, des identifiants d'appareils ou d'autres technologies similaires sur votre appareil et traiter ces données pour personnaliser le contenu et les publicités, ainsi que pour fournir des fonctionnalités de médias sociaux et analyser le trafic.

  • Stocker et/ou accéder à des informations sur votre appareil

    Des cookies, des identifiants d'appareils ou d'autres informations peuvent être stockés ou accessibles sur votre appareil aux fins indiquées ci-dessus.

  • Annonces et contenus personnalisés, mesure des annonces et des contenus, connaissance de l'audience et développement de produits

    Les annonces et le contenu peuvent être personnalisés en fonction d'un profil. D'autres données peuvent être ajoutées pour mieux personnaliser les annonces et le contenu. Les performances des publicités et du contenu peuvent être mesurées. Il est possible d'obtenir des informations sur le public qui a vu les publicités et le contenu. Ces données peuvent être utilisées pour développer ou améliorer l'expérience de l'utilisateur, les systèmes et les logiciels.

En cliquant sur "J'accepte", vous autorisez l'utilisation de cookies, des identifiants d'appareils, des balises web ou d'autres technologies similaires. Vos paramètres peuvent être modifiés dans le navigateur de votre appareil.

Dans certains cas, des intérêts légitimes peuvent être invoqués plutôt qu'un consentement. Vous pouvez en savoir plus à ce sujet dans notre Politique de confidentialité et de cookies.